15min,AgWx,beryljct,423,18SEP2019:00:00:00,43.1,12.94,40.5,39.8,40.1,41.5,39.2,62,67,51,0.544,28.2,29.4,24.9,0.833,0.6,178,0.1,2.2,-0.00022,-0.00032,65.3,67.9,9,0,.,.,17.20,0.00,0.00
15min,AgWx,beryljct,423,18SEP2019:00:15:00,42.5,12.92,43.2,42.3,41.2,42.3,39.9,52,65,47,0.432,24.9,29.2,23.3,1.863,0.6,175,0.9,2.0,-0.00023,-0.00034,65.0,67.8,8,0,.,.,17.21,0.00,0.00
15min,AgWx,beryljct,423,18SEP2019:00:30:00,42.5,12.91,39.9,39.6,42.6,46.3,39.5,51,65,38,0.533,25.3,28.7,21.9,0,1.5,137,34,4.8,-0.00012,-0.00014,64.7,67.8,9,0,.,.,17.21,0.00,0.00
15min,AgWx,beryljct,423,18SEP2019:00:45:00,42.1,12.91,40.5,40.3,40.6,41.7,39.5,58,65,53,0.496,27.2,28.8,26.0,0,0.9,99,0.3,4.0,-0.00019,-0.00026,64.4,67.7,9,0,.,.,17.21,0.00,0.00
15min,AgWx,beryljct,423,18SEP2019:01:00:00,41.5,12.89,38.4,38.3,39.2,40.3,38.3,63,68,58,0.537,27.7,28.8,26.6,0,0.0,100,0.0,0.4,-0.00029,-0.00047,64.2,67.6,9,0,.,.,17.21,0.00,0.00
15min,AgWx,beryljct,423,18SEP2019:01:15:00,40.8,12.89,37.5,37.0,38.4,39.8,36.6,66,75,58,0.543,27.8,29.7,26.1,0.943,0.6,99,0.3,3.1,-0.00021,-0.00031,63.9,67.5,9,0,.,.,17.21,0.00,0.00
15min,AgWx,beryljct,423,18SEP2019:01:30:00,40.0,12.86,36.2,36.3,36.8,38.1,35.8,71,78,65,0.512,28.4,30.2,26.8,0.636,1.6,105,7.1,3.6,-0.00014,-0.00018,63.7,67.4,9,0,.,.,17.21,0.00,0.00
15min,AgWx,beryljct,423,18SEP2019:01:45:00,39.2,12.86,36.6,36.3,36.0,36.6,35.3,70,75,63,0.459,27.0,28.3,24.8,1.118,0.7,115,0.0,1.8,-0.00020,-0.00029,63.4,67.3,9,0,.,.,17.21,0.00,0.00
15min,AgWx,beryljct,423,18SEP2019:02:00:00,38.6,12.86,35.6,36.5,35.9,37.0,35.1,65,71,60,0.474,25.3,26.7,24.5,2.389,2.5,182,28,3.6,-0.00007,-0.00007,63.1,67.3,9,0,.,.,17.22,0.00,0.00
15min,AgWx,beryljct,423,18SEP2019:02:15:00,38.3,12.85,36.3,36.8,37.8,39.0,36.1,59,67,51,0.478,24.8,26.3,22.3,3.135,2.3,216,49,4.2,-0.00006,-0.00006,62.9,67.2,9,0,.,.,17.22,0.00,0.00
15min,AgWx,beryljct,423,18SEP2019:02:30:00,38.1,12.84,37.4,36.2,35.9,36.8,34.8,64,69,59,0.424,24.8,26.0,23.1,5.831,2.9,328,10,5.8,-0.00004,-0.00003,62.6,67.1,9,0,.,.,17.22,0.00,0.00
15min,AgWx,beryljct,423,18SEP2019:02:45:00,37.9,12.83,32.4,36.0,35.6,36.7,34.0,56,60,52,0.392,21.3,22.8,20.4,0,3.8,6.3,9.8,6.0,0.00003,0.00007,62.4,67.0,8,0,.,.,17.22,0.00,0.00
15min,AgWx,beryljct,423,18SEP2019:03:00:00,37.3,12.81,32.6,32.5,33.9,36.1,32.5,65,73,55,0.435,23.3,25.2,21.2,0,1.0,1.3,0.1,2.6,-0.00016,-0.00022,62.1,66.9,8,0,.,.,17.22,0.00,0.00
15min,AgWx,beryljct,423,18SEP2019:03:15:00,36.5,12.8,34.5,34.1,33.2,34.1,32.5,67,70,58,0.382,23.2,24.2,20.7,1.776,0.8,1.3,0.2,2.2,-0.00018,-0.00026,61.9,66.8,8,0,.,.,17.22,0.00,0.00
15min,AgWx,beryljct,423,18SEP2019:03:30:00,36.0,12.8,34.9,35.4,34.1,35.7,33.2,64,71,56,0.439,23.3,24.9,20.2,2.083,2.2,1.2,0.0,3.1,-0.00008,-0.00009,61.7,66.7,9,0,.,.,17.22,0.00,0.00
15min,AgWx,beryljct,423,18SEP2019:03:45:00,35.7,12.79,33.1,32.8,33.6,35.4,32.7,68,71,63,0.447,24.1,25.1,23.0,0.46,1.1,1.1,0.0,2.1,-0.00016,-0.00021,61.5,66.6,9,0,.,.,17.22,0.00,0.00
15min,AgWx,beryljct,423,18SEP2019:04:00:00,35.2,12.79,34.0,33.9,33.3,33.9,32.7,71,72,62,0.407,24.8,25.7,22.2,0,0.2,1.3,0.0,1.5,-0.00024,-0.00037,61.2,66.5,8,0,.,.,17.22,0.00,0.00
15min,AgWx,beryljct,423,18SEP2019:04:15:00,34.8,12.78,34.2,34.0,33.9,34.2,33.6,65,69,60,0.428,23.2,24.7,21.7,0,0.1,1.2,0.0,0.9,-0.00025,-0.00040,61.0,66.4,9,0,.,.,17.21,0.00,0.00
15min,AgWx,beryljct,423,18SEP2019:04:30:00,34.7,12.77,35.2,32.8,33.9,35.0,32.5,65,71,56,0.411,23.4,25.1,21.0,0.066,1.1,17,36,2.1,-0.00015,-0.00020,60.8,66.3,9,0,.,.,17.22,0.00,0.00
15min,AgWx,beryljct,423,18SEP2019:04:45:00,34.4,12.77,32.7,33.2,33.4,34.6,32.2,62,68,56,0.414,21.8,23.1,20.5,2.872,2.1,142,29,4.2,-0.00008,-0.00009,60.6,66.2,9,0,.,.,17.22,0.00,0.00
15min,AgWx,beryljct,423,18SEP2019:05:00:00,34.2,12.76,33.3,33.1,32.7,33.2,32.2,61,66,58,0.370,20.8,22.6,19.8,2.85,3.1,177,1.7,4.8,-0.00002,-0.00001,60.4,66.1,9,0,.,.,17.22,0.00,0.00
15min,AgWx,beryljct,423,18SEP2019:05:15:00,33.9,12.75,34.5,34.2,33.2,34.2,32.5,58,62,55,0.367,20.2,21.1,19.6,2.85,2.7,176,1.3,4.3,-0.00003,-0.00002,60.2,66.0,9,0,.,.,17.22,0.00,0.00
15min,AgWx,beryljct,423,18SEP2019:05:30:00,33.8,12.74,33.6,33.9,33.9,34.8,32.9,56,59,54,0.389,20.0,21.1,19.4,2.214,3.0,177,3.1,4.6,-0.00001,0.00001,59.9,65.9,9,0,.,.,17.22,0.00,0.00
15min,AgWx,beryljct,423,18SEP2019:05:45:00,33.7,12.74,35.8,34.0,34.1,34.7,33.5,60,64,57,0.412,21.5,22.8,20.8,2.346,2.4,178,3.3,4.1,0.00017,0.00030,59.7,65.8,8,0,.,.,17.21,0.00,0.00
15min,AgWx,beryljct,423,18SEP2019:06:00:00,33.7,12.73,33.3,33.3,34.1,35.8,33.3,63,71,55,0.460,22.8,25.1,20.9,0,1.2,176,3.3,2.8,0.00009,0.00015,59.5,65.7,9,0,.,.,17.22,0.00,0.00
15min,AgWx,beryljct,423,18SEP2019:06:15:00,33.5,12.74,34.3,33.8,33.5,33.8,33.1,69,73,64,0.449,24.3,25.4,22.9,0.745,0.1,181,0.0,0.9,0.00002,0.00003,59.3,65.6,9,2,.,.,17.21,0.00,0.00
15min,AgWx,beryljct,423,18SEP2019:06:30:00,33.3,12.74,33.5,33.4,33.4,33.9,32.7,66,71,60,0.416,23.1,24.5,21.4,0,0.2,181,0.1,0.9,0.00005,0.00007,59.1,65.4,9,8,.,.,17.21,0.00,0.00
15min,AgWx,beryljct,423,18SEP2019:06:45:00,33.2,12.77,31.6,32.3,32.8,33.4,32.1,69,77,64,0.438,23.6,25.6,22.5,0.614,0.7,172,0.1,1.8,0.00025,0.00029,58.9,65.3,9,48,.,.,17.22,0.00,0.00
15min,AgWx,beryljct,423,18SEP2019:07:00:00,33.7,12.81,33.2,32.8,32.3,32.8,31.5,78,81,72,0.504,26.2,27.4,24.1,1.03,0.7,172,0.1,2.2,0.00036,0.00041,58.7,65.3,9,87,.,.,17.21,0.00,0.00
15min,AgWx,beryljct,423,18SEP2019:07:15:00,35.0,12.87,35.7,35.1,33.9,35.1,32.8,79,84,73,0.508,27.9,29.6,26.1,0,0.2,178,2.5,1.0,0.00051,0.00055,58.5,65.1,8,130,.,.,17.21,0.00,0.00
15min,AgWx,beryljct,423,18SEP2019:07:30:00,37.1,13.03,38.7,38.0,36.6,38.0,35.1,74,79,68,0.557,29.0,30.7,26.2,2.126,1.0,181,0.6,2.2,0.00073,0.00081,58.3,65.0,8,178,.,.,17.21,0.00,0.00
15min,AgWx,beryljct,423,18SEP2019:07:45:00,39.7,13.35,41.4,41.2,39.8,41.2,38.0,61,72,55,0.481,27.3,29.8,26.0,3.047,2.0,300,40,3.4,0.00103,0.00121,58.1,64.9,9,228,.,.,17.21,0.00,0.00
15min,AgWx,beryljct,423,18SEP2019:08:00:00,42.7,13.91,44.4,44.2,43.0,44.3,41.3,50,55,42,0.412,25.3,27.8,22.4,1.885,2.5,339,3.5,3.6,0.00138,0.00165,58.0,64.8,8,280,.,.,17.21,0.00,0.00
15min,AgWx,beryljct,423,18SEP2019:08:15:00,45.9,14.5,47.4,47.0,45.6,47.0,44.3,41,44,37,0.402,23.1,24.5,21.8,0.745,1.5,342,0.2,2.7,0.00165,0.00190,57.9,64.7,8,331,.,.,17.21,0.00,0.00
15min,AgWx,beryljct,423,18SEP2019:08:30:00,49.2,14.44,49.7,50.0,48.5,50.0,47.0,37,40,35,0.448,23.2,24.7,21.8,1.6,0.8,343,7.7,2.1,0.00192,0.00213,57.8,64.6,8,383,.,.,17.20,0.00,0.00
15min,AgWx,beryljct,423,18SEP2019:08:45:00,52.5,14.43,53.5,53.3,51.8,53.3,49.9,34,36,32,0.455,24.2,26.1,23.1,2.565,1.7,35,3.5,3.6,0.00237,0.00272,57.7,64.5,8,435,.,.,17.20,0.00,0.00
15min,AgWx,beryljct,423,18SEP2019:09:00:00,55.8,14.37,55.8,55.5,54.4,55.5,53.4,32,34,30,0.472,24.8,26.1,23.1,2.587,2.1,26,9.6,3.5,0.00274,0.00318,57.7,64.4,8,483,.,.,17.19,0.00,0.00
15min,AgWx,beryljct,423,18SEP2019:09:15:00,58.6,14.28,57.0,56.6,56.1,56.6,55.5,29,32,27,0.436,24.6,26.0,23.3,2.236,2.5,23,13,4.5,0.00310,0.00363,57.8,64.3,8,530,.,.,17.19,0.00,0.00
15min,AgWx,beryljct,423,18SEP2019:09:30:00,61.2,14.33,58.4,58.9,57.8,59.0,56.6,29,31,26,0.481,25.4,26.9,23.8,1.447,1.9,358,4.7,3.6,0.00336,0.00384,57.8,64.2,8,574,.,.,17.19,0.00,0.00
15min,AgWx,beryljct,423,18SEP2019:09:45:00,63.9,14.21,64.2,63.0,60.5,63.0,58.7,28,35,24,0.512,27.1,31.6,25.1,0,1.8,18,17,3.5,0.00371,0.00421,58.0,64.1,8,618,.,.,17.18,0.00,0.00
15min,AgWx,beryljct,423,18SEP2019:10:00:00,66.4,14.26,64.4,64.5,63.6,65.0,62.6,26,30,24,0.571,28.5,32.7,25.4,4.384,4.0,96,26,7.7,0.00430,0.00515,58.2,64.0,8,660,.,.,17.18,0.00,0.00
15min,AgWx,beryljct,423,18SEP2019:10:15:00,68.0,13.75,67.6,67.9,66.2,68.2,64.2,28,32,22,0.624,31.7,34.9,27.5,6.138,6.4,120,22,11.5,0.00484,0.00602,58.5,63.9,8,694,.,.,17.17,0.00,0.00
15min,AgWx,beryljct,423,18SEP2019:10:30:00,69.6,13.73,70.0,70.2,69.7,70.8,67.9,22,28,19,0.487,29.4,34.0,25.9,16.29,13.2,164,13,19.9,0.00591,0.00804,58.8,63.8,8,727,.,.,17.18,0.01,0.00
15min,AgWx,beryljct,423,18SEP2019:10:45:00,70.9,13.68,70.5,71.0,70.8,71.5,70.2,20,22,19,0.506,27.9,29.7,26.2,14.03,14.3,174,12,21.1,0.00632,0.00868,59.2,63.7,8,757,.,.,17.17,0.00,0.00
15min,AgWx,beryljct,423,18SEP2019:11:00:00,71.8,13.66,70.5,70.3,71.1,71.6,70.3,20,23,18,0.552,27.6,30.3,25.1,17.91,15.5,181,14,22.5,0.00658,0.00908,59.7,63.7,8,783,.,.,17.17,0.00,0.00
15min,AgWx,beryljct,423,18SEP2019:11:15:00,72.3,13.67,70.1,70.8,70.8,71.7,70.3,20,24,18,0.553,28.1,31.7,25.2,18.33,15.0,189,14,20.2,0.00660,0.00903,60.1,63.6,8,806,.,.,17.17,0.00,0.00
15min,AgWx,beryljct,423,18SEP2019:11:30:00,72.6,13.66,72.0,71.5,70.9,71.8,70.2,21,24,19,0.494,29.3,32.3,26.5,17.06,14.9,191,12,21.2,0.00665,0.00905,60.6,63.6,8,824,.,.,17.17,0.00,0.00
15min,AgWx,beryljct,423,18SEP2019:11:45:00,73.2,13.65,72.3,72.0,72.1,72.8,71.4,19,23,17,0.460,27.0,32.1,24.6,17.56,15.6,179,12,23.5,0.00697,0.00956,61.0,63.5,8,839,.,.,17.17,0.00,0.00
15min,AgWx,beryljct,423,18SEP2019:12:00:00,73.6,13.62,72.7,71.5,71.5,72.1,71.1,20,24,18,0.546,28.1,32.3,25.7,14.14,16.2,193,11,22.8,0.00696,0.00956,61.6,63.5,8,851,.,.,17.17,0.00,0.00
15min,AgWx,beryljct,423,18SEP2019:12:15:00,73.9,13.64,73.3,73.0,72.3,73.1,71.5,18,21,16,0.450,26.7,30.8,23.9,15.5,16.6,186,12,22.7,0.00716,0.00988,62.0,63.5,8,859,.,.,17.16,0.00,0.00
15min,AgWx,beryljct,423,18SEP2019:12:30:00,74.1,13.64,72.9,73.0,72.5,73.8,71.4,19,25,16,0.493,27.7,34.0,24.4,17.58,14.5,188,20,21.7,0.00701,0.00951,62.5,63.5,8,862,.,.,17.17,0.01,0.00
15min,AgWx,beryljct,423,18SEP2019:12:45:00,74.6,13.6,72.4,73.2,73.2,73.6,72.6,19,23,15,0.549,28.3,33.3,23.2,13.2,13.9,189,12,20.1,0.00703,0.00948,63.0,63.5,8,860,.,.,17.16,0.00,0.00
15min,AgWx,beryljct,423,18SEP2019:13:00:00,74.9,13.68,73.9,74.0,73.2,74.0,72.1,18,21,15,0.490,27.1,30.6,22.7,17.43,16.8,184,17,23.2,0.00725,0.01003,63.5,63.6,8,854,.,.,17.17,0.00,0.00
15min,AgWx,beryljct,423,18SEP2019:13:15:00,75.7,13.58,74.2,74.8,74.2,74.9,73.1,17,22,15,0.472,27.1,32.5,24.0,16.18,14.3,181,14,21.5,0.00711,0.00969,64.0,63.6,8,846,.,.,17.17,0.00,0.00
15min,AgWx,beryljct,423,18SEP2019:13:30:00,76.4,13.57,75.3,74.3,74.5,75.5,73.4,17,20,15,0.533,27.2,30.9,24.5,13.75,14.9,180,15,22.7,0.00714,0.00981,64.5,63.6,8,832,.,.,17.17,0.00,0.00
15min,AgWx,beryljct,423,18SEP2019:13:45:00,77.1,13.54,74.4,74.2,74.6,75.0,74.1,17,21,15,0.507,27.5,31.9,24.5,13.46,15.5,171,14,24.1,0.00709,0.00982,65.0,63.7,8,814,.,.,17.17,0.00,0.00
15min,AgWx,beryljct,423,18SEP2019:14:00:00,77.5,13.52,74.4,74.8,74.5,75.1,73.7,17,19,15,0.467,26.7,29.1,24.1,15.52,16.9,170,14,24.1,0.00711,0.00999,65.5,63.8,8,793,.,.,17.17,0.00,0.00
15min,AgWx,beryljct,423,18SEP2019:14:15:00,77.8,13.53,75.1,75.7,74.9,75.7,74.4,16,18,15,0.510,26.4,28.8,23.9,17.3,16.0,174,15,23.8,0.00695,0.00975,66.0,63.8,8,769,.,.,17.17,0.00,0.00
15min,AgWx,beryljct,423,18SEP2019:14:30:00,78.2,13.49,74.4,75.4,75.5,76.0,75.0,16,18,14,0.461,25.5,28.7,22.4,23.46,15.5,175,11,23.5,0.00685,0.00964,66.4,63.9,8,744,.,.,17.17,0.01,0.00
15min,AgWx,beryljct,423,18SEP2019:14:45:00,78.4,13.6,74.4,75.0,75.2,76.2,74.4,16,19,13,0.483,25.8,29.8,21.9,16.07,14.4,184,12,23.5,0.00645,0.00909,66.9,64.0,8,701,.,.,17.17,0.00,0.00
15min,AgWx,beryljct,423,18SEP2019:15:00:00,78.5,13.57,75.0,75.6,75.4,75.8,74.9,15,17,13,0.437,23.8,27.6,21.9,18.9,16.5,175,12,23.9,0.00653,0.00943,67.3,64.1,8,666,.,.,17.17,0.00,0.00
15min,AgWx,beryljct,423,18SEP2019:15:15:00,78.3,13.6,74.2,74.7,75.0,76.0,73.9,16,20,13,0.519,25.4,30.8,21.7,11.9,14.4,195,13,22.1,0.00613,0.00874,67.7,64.2,8,645,.,.,17.17,0.00,0.00
15min,AgWx,beryljct,423,18SEP2019:15:30:00,78.3,13.51,74.1,74.5,75.1,76.0,74.1,16,18,13,0.478,25.1,29.2,21.6,16.51,14.7,192,20,21.9,0.00593,0.00855,68.0,64.4,8,605,.,.,17.17,0.00,0.00
15min,AgWx,beryljct,423,18SEP2019:15:45:00,77.9,13.5,76.0,75.4,74.5,75.4,73.8,15,18,13,0.399,24.3,27.4,21.7,18.44,15.5,189,13,21.2,0.00576,0.00846,68.4,64.4,8,564,.,.,17.17,0.00,0.00
15min,AgWx,beryljct,423,18SEP2019:16:00:00,77.5,13.53,74.2,73.4,73.7,75.5,72.6,17,20,13,0.447,25.6,29.2,20.8,14.47,14.2,209,11,22.3,0.00528,0.00775,68.6,64.5,8,521,.,.,17.17,0.00,0.00
15min,AgWx,beryljct,423,18SEP2019:16:15:00,76.9,13.53,73.4,73.2,73.5,74.1,72.9,16,18,14,0.479,24.8,27.6,22.2,15.1,15.7,209,14,22.1,0.00517,0.00779,68.9,64.7,8,474,.,.,17.17,0.00,0.00
15min,AgWx,beryljct,423,18SEP2019:16:30:00,76.5,13.55,74.0,73.9,73.7,74.1,73.2,16,18,14,0.420,24.9,27.7,21.7,15.85,13.7,200,8.0,23.5,0.00467,0.00705,69.1,64.8,8,425,.,.,17.17,0.00,0.00
15min,AgWx,beryljct,423,18SEP2019:16:45:00,76.2,13.58,73.5,73.6,74.0,74.5,73.5,15,16,13,0.411,23.0,25.6,20.2,15.5,15.4,193,9.5,25.0,0.00468,0.00730,69.3,64.9,8,375,.,.,17.17,0.00,0.00
15min,AgWx,beryljct,423,18SEP2019:17:00:00,75.8,13.54,73.6,73.2,73.3,73.7,73.1,15,17,14,0.426,23.6,26.2,21.8,17.87,13.9,198,8.0,19.9,0.00411,0.00648,69.4,65.0,8,323,.,.,17.17,0.00,0.00
15min,AgWx,beryljct,423,18SEP2019:17:15:00,75.2,13.59,73.2,73.2,73.1,73.4,72.6,15,17,14,0.394,22.9,24.7,21.4,16.24,16.0,203,9.4,21.6,0.00414,0.00675,69.5,65.2,8,273,.,.,17.17,0.00,0.00
15min,AgWx,beryljct,423,18SEP2019:17:30:00,74.7,13.58,72.0,72.5,72.8,73.3,72.2,16,18,14,0.447,23.3,26.1,21.1,13.11,15.2,202,9.2,21.6,0.00371,0.00619,69.5,65.3,8,221,.,.,17.17,0.00,0.00
15min,AgWx,beryljct,423,18SEP2019:17:45:00,74.0,13.59,72.7,72.7,72.4,72.9,71.8,16,18,14,0.386,23.2,26.7,20.9,16,13.7,194,10,20.1,0.00175,0.00215,69.5,65.4,8,172,.,.,17.17,0.00,0.00
15min,AgWx,beryljct,423,18SEP2019:18:00:00,73.2,13.39,70.0,71.2,72.0,72.8,71.2,15,17,14,0.425,22.4,23.8,21.1,8.68,12.5,189,8.7,17.6,0.00160,0.00199,69.5,65.5,8,125,.,.,17.17,0.00,0.00
15min,AgWx,beryljct,423,18SEP2019:18:15:00,72.2,13.26,70.4,70.6,71.0,71.5,70.5,16,17,15,0.424,23.0,24.5,21.9,12.14,13.1,193,7.3,19.1,0.00150,0.00187,69.4,65.6,9,81,.,.,17.17,0.00,0.00
15min,AgWx,beryljct,423,18SEP2019:18:30:00,71.0,13.19,67.9,69.1,69.9,70.5,69.1,17,17,16,0.420,22.9,23.6,22.3,9.27,11.7,193,6.8,16.4,0.00129,0.00163,69.3,65.7,9,32,.,.,17.17,0.00,0.00
15min,AgWx,beryljct,423,18SEP2019:18:45:00,69.5,13.13,68.0,67.8,68.7,69.3,67.8,17,18,16,0.409,22.2,23.4,21.3,10.35,10.7,192,6.1,16.2,0.00113,0.00146,69.2,65.8,9,6,.,.,17.18,0.00,0.00
15min,AgWx,beryljct,423,18SEP2019:19:00:00,68.1,13.11,66.8,67.2,67.6,68.1,67.2,17,18,16,0.404,21.9,22.3,20.8,9.08,9.8,192,6.2,14.3,0.00103,0.00133,69.0,65.9,8,1,.,.,17.18,0.00,0.00
15min,AgWx,beryljct,423,18SEP2019:19:15:00,66.8,13.1,63.4,64.6,66.0,67.1,64.6,19,20,18,0.418,22.1,22.8,21.1,6.182,7.9,191,5.6,11.4,0.00082,0.00110,68.8,66.0,8,0,.,.,17.18,0.00,0.00
15min,AgWx,beryljct,423,18SEP2019:19:30:00,64.7,13.08,61.8,61.3,61.9,64.5,59.8,24,28,20,0.431,24.4,26.8,23.0,6.423,5.1,193,5.3,6.7,0.00044,0.00064,68.6,66.1,8,0,.,.,17.18,0.00,0.00
15min,AgWx,beryljct,423,18SEP2019:19:45:00,62.7,13.08,63.6,63.0,62.1,63.0,60.6,19,23,17,0.331,19.8,23.4,17.3,7.234,6.0,205,5.1,8.8,0.00057,0.00080,68.4,66.2,8,0,.,.,17.18,0.00,0.00
15min,AgWx,beryljct,423,18SEP2019:20:00:00,62.3,13.07,66.5,65.7,64.8,65.8,63.1,15,17,13,0.300,15.7,17.1,14.3,9.76,8.4,206,8.7,12.4,0.00088,0.00116,68.1,66.2,8,0,.,.,17.18,0.00,0.00
15min,AgWx,beryljct,423,18SEP2019:20:15:00,62.8,13.06,65.8,65.6,65.9,66.4,65.6,14,15,14,0.332,16.0,17.4,14.9,10.11,9.4,197,8.9,12.5,0.00099,0.00129,67.9,66.3,8,0,.,.,17.18,0.00,0.00
15min,AgWx,beryljct,423,18SEP2019:20:30:00,63.0,13.05,62.6,64.1,65.3,66.0,64.1,17,18,15,0.375,19.0,20.5,17.3,4.823,8.5,189,7.0,12.0,0.00088,0.00117,67.6,66.3,9,0,.,.,17.18,0.01,0.00
15min,AgWx,beryljct,423,18SEP2019:20:45:00,62.4,13.05,62.8,62.7,63.1,64.1,62.4,18,19,18,0.349,19.4,20.9,18.5,4.998,5.8,175,6.4,11.3,0.00058,0.00081,67.3,66.3,8,0,.,.,17.18,0.00,0.00
15min,AgWx,beryljct,423,18SEP2019:21:00:00,61.2,13.04,60.8,60.4,61.1,62.8,58.6,20,26,18,0.364,20.1,24.2,18.0,4.911,5.0,179,5.7,11.7,0.00045,0.00065,67.1,66.4,8,0,.,.,17.18,0.00,0.00
15min,AgWx,beryljct,423,18SEP2019:21:15:00,59.7,13.03,61.6,58.8,59.4,61.3,56.9,24,30,19,0.427,22.1,25.9,18.6,4.954,4.8,187,9.4,5.9,0.00039,0.00057,66.8,66.4,8,0,.,.,17.18,0.00,0.00
15min,AgWx,beryljct,423,18SEP2019:21:30:00,58.8,13.02,59.7,60.7,62.4,64.0,59.1,19,24,17,0.414,19.9,22.6,17.9,6.84,5.5,218,7.0,6.8,0.00052,0.00074,66.6,66.4,9,0,.,.,17.18,0.00,0.00
15min,AgWx,beryljct,423,18SEP2019:21:45:00,58.3,13.02,60.3,60.3,60.5,61.0,60.0,22,24,21,0.376,21.2,22.8,20.3,4.165,5.9,194,12,10.2,0.00052,0.00073,66.3,66.4,9,0,.,.,17.19,0.01,0.00
15min,AgWx,beryljct,423,18SEP2019:22:00:00,57.7,13.01,57.2,58.9,59.4,61.1,57.1,21,24,20,0.364,19.8,21.2,18.8,1.162,3.6,160,18,5.5,0.00026,0.00041,66.1,66.4,9,0,.,.,17.18,0.00,0.00
15min,AgWx,beryljct,423,18SEP2019:22:15:00,56.4,13.01,60.6,59.5,58.6,59.5,57.2,21,23,20,0.354,18.9,20.2,17.6,0,0.5,148,0.1,1.7,-0.00033,-0.00048,65.8,66.4,9,0,.,.,17.19,0.00,0.00
15min,AgWx,beryljct,423,18SEP2019:22:30:00,55.2,13,57.7,55.0,57.8,60.2,54.1,24,30,19,0.389,20.7,23.5,18.0,2.236,1.6,169,7.7,2.9,-0.00010,-0.00010,65.5,66.4,8,0,.,.,17.19,0.00,0.00
15min,AgWx,beryljct,423,18SEP2019:22:45:00,54.1,12.99,57.2,57.6,57.4,58.5,55.3,22,26,20,0.337,18.7,21.5,17.2,3.529,3.1,175,1.9,5.0,0.00017,0.00029,65.3,66.3,8,0,.,.,17.19,0.00,0.00
15min,AgWx,beryljct,423,18SEP2019:23:00:00,53.5,12.97,57.8,56.8,55.8,57.5,55.1,24,26,21,0.341,19.4,21.3,17.2,2.433,2.7,184,2.3,3.5,0.00009,0.00018,65.0,66.3,8,0,.,.,17.19,0.00,0.00
15min,AgWx,beryljct,423,18SEP2019:23:15:00,52.9,12.97,57.1,55.8,54.7,57.8,51.6,29,36,21,0.411,22.6,25.6,18.0,5.217,2.8,159,4.7,5.9,0.00009,0.00017,64.8,66.3,9,0,.,.,17.19,0.00,0.00
15min,AgWx,beryljct,423,18SEP2019:23:30:00,52.9,12.96,60.3,59.2,58.3,60.6,56.1,24,27,20,0.371,21.1,23.2,18.9,5.13,4.8,156,11,6.1,0.00038,0.00055,64.5,66.3,9,0,.,.,17.19,0.00,0.00
15min,AgWx,beryljct,423,18SEP2019:23:45:00,53.2,12.94,59.2,59.2,57.4,59.5,53.4,25,33,21,0.364,21.3,24.8,19.4,7.081,6.0,145,8.2,7.6,0.00048,0.00066,64.2,66.2,8,0,.,.,17.19,0.00,0.00
15min,AgWx,bigpiney,439,18SEP2019:00:00:00,30.1,12.63,28.8,29.1,29.6,31.6,26.9,78,84,70,0.388,23.5,24.6,21.0,3.113,2.6,255,25,3.6,0.00004,0.00006,49.2,49.7,41,0,0,0.0,4.88,0.00,0.00
15min,AgWx,bigpiney,439,18SEP2019:00:15:00,30.0,12.63,27.6,27.8,28.4,29.0,27.8,79,81,72,0.417,22.6,22.9,21.2,2.411,3.0,327,6.5,3.6,0.00004,0.00006,49.2,49.7,41,0,0,0.0,4.88,0.00,0.00
15min,AgWx,bigpiney,439,18SEP2019:00:30:00,29.8,12.62,28.8,26.9,26.4,27.8,25.3,83,85,80,0.420,21.9,23.2,20.5,2.433,1.8,170,62,3.2,0.00001,0.00002,49.1,49.7,41,0,0,0.0,4.88,0.00,0.00
15min,AgWx,bigpiney,439,18SEP2019:00:45:00,29.3,12.61,26.1,25.9,25.9,27.4,24.4,83,85,79,0.394,21.3,23.2,19.5,2.17,2.5,230,18,3.3,0.00002,0.00003,49.0,49.7,41,0,0,0.0,4.88,0.00,0.00
15min,AgWx,bigpiney,439,18SEP2019:01:00:00,29.0,12.6,25.2,25.0,26.0,26.4,25.0,83,84,83,0.384,21.6,22.2,20.8,2.653,2.4,240,4.9,3.2,0.00002,0.00003,48.9,49.7,41,0,0,0.0,4.88,0.00,0.00
15min,AgWx,bigpiney,439,18SEP2019:01:15:00,28.6,12.59,21.9,23.0,25.6,27.3,23.0,83,86,79,0.339,21.1,23.6,17.8,4.034,2.6,214,24,6.2,0.00002,0.00003,48.8,49.6,41,0,0,0.0,4.88,0.00,0.00
15min,AgWx,bigpiney,439,18SEP2019:01:30:00,28.1,12.58,25.3,24.7,23.2,25.3,22.0,85,87,81,0.380,19.3,21.9,17.8,2.916,3.5,226,25,4.4,0.00003,0.00004,48.7,49.6,41,0,0,0.0,4.88,0.00,0.00
15min,AgWx,bigpiney,439,18SEP2019:01:45:00,27.6,12.57,24.2,23.1,23.7,24.7,22.9,84,86,83,0.364,19.7,20.5,19.2,3.442,2.7,212,16,3.5,0.00002,0.00003,48.6,49.6,41,0,0,0.0,4.88,0.00,0.00
15min,AgWx,bigpiney,439,18SEP2019:02:00:00,27.2,12.56,22.7,26.7,25.9,27.3,23.2,85,88,81,0.399,22.1,23.1,19.6,1.776,1.7,251,15,3.5,0.00001,0.00001,48.5,49.6,41,0,0,0.0,4.88,0.00,0.00
15min,AgWx,bigpiney,439,18SEP2019:02:15:00,26.9,12.55,28.3,27.4,24.7,27.4,22.8,85,89,78,0.426,20.7,23.5,18.4,0,1.7,210,13,4.3,0.00001,0.00001,48.4,49.5,41,0,0,0.0,4.88,0.00,0.00
15min,AgWx,bigpiney,439,18SEP2019:02:30:00,26.7,12.55,28.8,28.5,27.9,28.7,27.3,82,84,80,0.423,23.1,23.5,22.8,0.197,1.0,85,47,3.4,-0.00000,-0.00000,48.4,49.5,41,0,0,0.0,4.88,0.00,0.00
15min,AgWx,bigpiney,439,18SEP2019:02:45:00,26.6,12.54,25.9,24.9,24.9,28.5,21.9,82,89,78,0.401,20.2,23.1,17.5,3.617,3.6,192,20,5.2,0.00004,0.00005,48.3,49.5,41,0,0,0.0,4.88,0.00,0.00
15min,AgWx,bigpiney,439,18SEP2019:03:00:00,26.3,12.52,23.1,24.3,26.8,29.2,24.3,84,88,75,0.344,22.5,24.2,18.2,5.217,2.6,290,39,5.3,0.00002,0.00003,48.2,49.5,41,0,0,0.0,4.88,0.00,0.00
15min,AgWx,bigpiney,439,18SEP2019:03:15:00,26.1,12.5,21.2,20.9,22.6,24.1,20.9,84,86,78,0.333,18.6,20.2,17.2,3.332,4.7,264,70,5.8,0.00004,0.00005,48.1,49.5,41,0,0,0.0,4.88,0.00,0.00
15min,AgWx,bigpiney,439,18SEP2019:03:30:00,25.6,12.49,23.7,22.8,22.1,23.1,20.9,87,88,85,0.361,18.8,19.9,17.4,4.976,4.5,215,9.0,5.4,0.00003,0.00004,48.0,49.4,41,0,0,0.0,4.88,0.00,0.00
15min,AgWx,bigpiney,439,18SEP2019:03:45:00,25.3,12.49,22.4,22.3,22.8,23.2,22.3,87,87,86,0.352,19.4,20.0,18.7,2.236,3.1,252,13,5.2,0.00002,0.00003,47.9,49.4,41,0,0,0.0,4.88,0.00,0.00
15min,AgWx,bigpiney,439,18SEP2019:04:00:00,25.1,12.48,26.1,25.9,25.5,26.9,22.2,86,89,82,0.392,21.8,22.8,18.7,3.332,3.6,291,13,4.6,0.00003,0.00004,47.8,49.4,41,0,0,0.0,4.88,0.00,0.00
15min,AgWx,bigpiney,439,18SEP2019:04:15:00,25.2,12.47,25.6,25.3,24.7,25.9,23.2,84,87,79,0.392,20.6,22.1,18.0,2.981,2.3,214,64,3.5,0.00002,0.00003,47.7,49.3,41,0,0,0.0,4.88,0.00,0.00
15min,AgWx,bigpiney,439,18SEP2019:04:30:00,25.4,12.46,26.0,25.5,26.0,27.2,25.1,83,86,80,0.392,21.5,23.0,20.7,0.877,3.2,243,17,5.3,0.00003,0.00004,47.6,49.3,41,0,0,0.0,4.88,0.00,0.00
15min,AgWx,bigpiney,439,18SEP2019:04:45:00,25.4,12.44,20.6,20.9,22.9,25.6,20.6,84,88,80,0.336,18.8,21.4,16.6,1.951,1.6,14,43,4.6,0.00001,0.00001,47.5,49.3,41,0,0,0.0,4.88,0.00,0.00
15min,AgWx,bigpiney,439,18SEP2019:05:00:00,25.1,12.42,21.9,21.2,21.2,21.6,20.6,88,90,86,0.351,18.3,18.7,17.3,2.565,1.9,356,21,2.9,0.00000,0.00001,47.4,49.2,41,0,0,0.0,4.88,0.00,0.00
15min,AgWx,bigpiney,439,18SEP2019:05:15:00,24.6,12.41,22.2,21.5,21.1,21.6,20.5,90,90,89,0.358,18.6,19.2,17.8,3.135,2.8,303,10,3.3,0.00001,0.00001,47.3,49.2,41,0,0,0.0,4.88,0.00,0.00
15min,AgWx,bigpiney,439,18SEP2019:05:30:00,24.1,12.4,23.8,22.9,22.4,23.0,21.6,90,91,88,0.378,19.9,20.6,19.1,3.442,2.8,293,6.0,4.1,0.00001,0.00001,47.3,49.2,41,0,0,0.0,4.88,0.00,0.00
15min,AgWx,bigpiney,439,18SEP2019:05:45:00,23.8,12.39,24.3,23.8,23.0,23.9,21.8,90,91,88,0.391,20.4,21.4,18.7,2.587,2.1,253,14,3.4,0.00000,0.00000,47.1,49.1,41,0,0,0.0,4.88,0.00,0.00
15min,AgWx,bigpiney,439,18SEP2019:06:00:00,23.4,12.38,25.7,24.6,22.9,24.6,21.8,90,92,87,0.409,20.3,22.3,18.4,3.069,2.9,225,4.1,3.8,0.00001,0.00002,47.1,49.2,41,2,0,0.0,4.88,0.00,0.00
15min,AgWx,bigpiney,439,18SEP2019:06:15:00,23.0,12.4,22.7,22.0,23.6,24.7,22.0,89,91,85,0.341,20.7,22.4,18.0,3.924,4.1,235,6.5,4.7,0.00003,0.00004,47.0,49.1,41,12,0,0.0,4.88,0.00,0.00
15min,AgWx,bigpiney,439,18SEP2019:06:30:00,22.8,12.42,24.6,24.1,22.5,24.1,20.9,88,91,85,0.395,19.6,21.5,17.3,3.244,3.3,240,5.4,4.2,-0.00012,-0.00009,46.9,49.0,41,44,0,0.0,4.88,0.00,0.00
15min,AgWx,bigpiney,439,18SEP2019:06:45:00,22.9,12.57,23.6,23.0,23.4,24.9,22.3,88,90,85,0.369,20.3,22.2,19.0,3.464,2.8,239,7.6,3.6,-0.00002,0.00001,46.8,49.1,41,78,0,0.0,4.88,0.00,0.00
15min,AgWx,bigpiney,439,18SEP2019:07:00:00,23.6,12.89,26.1,25.7,24.7,25.7,23.1,88,89,88,0.418,21.7,22.8,19.9,1.798,2.2,226,14,3.4,0.00010,0.00013,46.7,49.0,41,117,0,0.0,4.88,0.00,0.00
15min,AgWx,bigpiney,439,18SEP2019:07:15:00,24.7,13.53,30.1,29.2,27.3,29.2,25.7,89,90,88,0.478,24.5,26.1,22.8,0,1.1,226,12,2.6,0.00027,0.00030,46.6,49.0,41,162,0,0.0,4.88,0.00,0.00
15min,AgWx,bigpiney,439,18SEP2019:07:30:00,26.6,13.81,31.4,31.1,30.4,31.3,29.3,86,88,83,0.489,26.6,27.4,25.9,1.315,0.1,341,14,1.4,0.00048,0.00052,46.5,48.9,41,207,0,0.0,4.88,0.00,0.00
15min,AgWx,bigpiney,439,18SEP2019:07:45:00,29.0,14.87,32.9,32.3,31.6,32.3,31.0,81,83,79,0.492,26.3,26.8,25.8,2.017,1.1,1.0,21,2.0,0.00071,0.00078,46.5,48.9,41,255,0,0.0,4.88,0.00,0.00
15min,AgWx,bigpiney,439,18SEP2019:08:00:00,31.8,14.78,35.0,34.7,33.6,34.7,32.3,78,80,74,0.506,27.4,28.6,26.7,1.907,1.9,342,14,3.1,0.00095,0.00106,46.4,48.9,41,303,0,0.0,4.88,0.00,0.00
15min,AgWx,bigpiney,439,18SEP2019:08:15:00,34.6,14.81,39.0,37.4,36.1,37.4,34.7,71,75,67,0.515,27.7,28.4,27.1,0,1.2,356,35,3.2,0.00123,0.00136,46.3,48.8,41,352,0,0.0,4.88,0.00,0.00
15min,AgWx,bigpiney,439,18SEP2019:08:30:00,37.4,14.83,40.8,39.1,38.2,39.1,37.6,68,71,65,0.531,28.4,29.5,27.4,1.162,1.7,32,21,3.7,0.00152,0.00169,46.2,48.8,41,400,0,0.0,4.88,0.00,0.00